This demonstration page uses our WeatherBlox Daily Observations layout. Learn more.

40.92945, -100.16068

Hourly Observations for September 1, 2017

Temp ( °F °C ) Dew Point ( °F °C ) Humidity (%) Winds ( mph kmh ) Pressure ( in mb ) Visibility ( mi km ) Precip ( " mm )
12:15 am 00:15 Clear 70 21 59 15.1 69 69 SE 8 13 29.97 1015 10 16.09344 0 0
12:35 am 00:35 Clear 70 21 59 15 69 69 SSE 9 15 29.97 1015 10 16.09344 0 0
12:55 am 00:55 Clear 69 20.6 59 15 70 70 SE 9 15 29.94 1014 10 16.09344 0 0
1:15 am 01:15 Clear 69 20.5 59 15 71 71 SSE 9 15 29.97 1015 10 16.09344 0 0
1:35 am 01:35 Partly Cloudy 68 20.2 59 15 72 72 SE 7 11 30 1016 10 16.09344 0 0
1:55 am 01:55 Partly Cloudy 68 19.9 59 15 74 74 SSE 5 7 30 1016 10 16.09344 0 0
2:15 am 02:15 Clear 67 19.5 59 15.2 76 76 SSW 3 6 30 1016 10 16.09344 0 0
2:35 am 02:35 Clear 67 19.3 59 15.1 77 77 SSE 7 11 30 1016 10 16.09344 0 0
2:55 am 02:55 Clear 67 19.7 59 14.9 74 74 SSW 9 15 30 1016 10 16.09344 0 0
3:15 am 03:15 Clear 68 20.1 58 14.6 71 71 S 10 17 30 1016 10 16.09344 0 0
3:35 am 03:35 Clear 69 20.5 58 14.6 69 69 S 15 24 29.94 1014 10 16.09344 0 0
3:55 am 03:55 Partly Cloudy 69 20.4 58 14.5 69 69 S 14 22 29.94 1014 10 16.09344 0 0
4:15 am 04:15 Mostly Cloudy 68 20 58 14.3 70 70 S 15 24 29.97 1015 10 16.09344 0 0
4:35 am 04:35 Cloudy 67 19.7 58 14.3 71 71 S 14 22 29.97 1015 10 16.09344 0 0
4:55 am 04:55 Cloudy 67 19.5 58 14.3 72 72 S 14 22 29.97 1015 10 16.09344 0 0
5:15 am 05:15 Mostly Cloudy with Light Drizzle 66 19.1 58 14.3 74 74 S 14 22 29.97 1015 10 16.09344 0 0
5:35 am 05:35 Partly Cloudy 67 19.6 57 14 70 70 S 13 20 29.97 1015 10 16.09344 0 0
5:55 am 05:55 Partly Cloudy 67 19.6 57 14 70 70 S 14 22 29.97 1015 10 16.09344 0 0
6:15 am 06:15 Mostly Cloudy with Light Drizzle 66 18.7 58 14.5 77 77 S 13 20 29.97 1015 10 16.09344 0 0
6:35 am 06:35 Mostly Cloudy 65 18.5 58 14.6 78 78 S 8 13 29.97 1015 10 16.09344 0 0
6:55 am 06:55 Mostly Cloudy with Light Rain 65 18.1 59 14.8 81 81 S 9 15 29.97 1015 10 16.09344 0 0
7:15 am 07:15 Mostly Cloudy 65 18.4 58 14.6 79 79 SSE 9 15 29.97 1015 10 16.09344 0 0
7:35 am 07:35 Mostly Cloudy with Light Drizzle 65 18.4 58 14.6 79 79 SSE 16 26 29.97 1015 10 16.09344 0 0
7:55 am 07:55 Cloudy 65 18.3 58 14.6 79 79 S 13 20 29.97 1015 10 16.09344 0 0
8:15 am 08:15 Mostly Cloudy 65 18.4 58 14.6 79 79 S 10 17 29.97 1015 10 16.09344 0 0
8:35 am 08:35 Mostly Cloudy 66 18.8 59 14.8 78 78 S 7 11 29.97 1015 10 16.09344 0 0
8:55 am 08:55 Partly Cloudy 66 19.1 59 14.9 77 77 S 6 9 29.97 1015 10 16.09344 0 0
9:15 am 09:15 Mostly Cloudy 67 19.5 59 15 75 75 SSW 6 9 29.97 1015 10 16.09344 0 0
9:35 am 09:35 Mostly Cloudy 67 19.7 59 15.1 75 75 SSW 6 9 30 1016 10 16.09344 0 0
9:55 am 09:55 Cloudy 67 19.6 59 15.1 75 75 SSW 8 13 30 1016 10 16.09344 0 0
10:15 am 10:15 Mostly Cloudy with Light Rain 67 19.5 60 15.5 78 78 S 6 9 29.97 1015 10 16.09344 0 0
10:35 am 10:35 Mostly Cloudy 69 20.5 60 15.6 74 74 S 8 13 29.94 1014 10 16.09344 0 0
10:55 am 10:55 Cloudy 68 20.1 60 15.4 74 74 S 8 13 29.97 1015 10 16.09344 0 0
11:15 am 11:15 Cloudy 69 20.6 60 15.6 73 73 S 10 17 29.94 1014 10 16.09344 0 0
11:35 am 11:35 Cloudy with Light Rain 68 19.9 61 15.9 78 78 SSW 7 11 29.97 1015 7 11.265408 0 0
11:55 am 11:55 Mostly Cloudy with Light Drizzle 68 19.8 61 16.3 80 80 S 3 6 29.97 1015 10 16.09344 0 0
12:15 pm 12:15 Mostly Cloudy 69 20.5 62 16.9 80 80 S 6 9 29.94 1014 10 16.09344 0 0
12:35 pm 12:35 Partly Cloudy 71 21.6 64 17.5 78 78 S 12 19 29.94 1014 10 16.09344 0 0
12:55 pm 12:55 Partly Cloudy 73 22.5 63 17.2 72 72 S 15 24 29.94 1014 10 16.09344 0 0
1:15 pm 13:15 Sunny 74 23.6 63 17.2 67 67 S 14 22 29.94 1014 10 16.09344 0 0
1:35 pm 13:35 Sunny 76 24.5 63 17.3 64 64 S 10 17 29.91 1013 10 16.09344 0 0
1:55 pm 13:55 Mostly Cloudy 75 24 62 16.9 65 65 S 10 17 29.91 1013 10 16.09344 0 0
2:15 pm 14:15 Mostly Cloudy 75 24 62 16.8 64 64 SSW 8 13 29.91 1013 10 16.09344 0 0
2:35 pm 14:35 Cloudy 76 24.2 63 17.1 65 65 S 9 15 29.91 1013 10 16.09344 0 0
2:55 pm 14:55 Cloudy 76 24.5 63 17.3 64 64 SSE 9 15 29.91 1013 10 16.09344 0 0
3:15 pm 15:15 Mostly Cloudy 77 24.8 63 17.3 63 63 S 13 20 29.91 1013 10 16.09344 0 0
3:35 pm 15:35 Mostly Cloudy 77 25 62 16.8 60 60 S 10 17 29.91 1013 10 16.09344 0 0
3:55 pm 15:55 Partly Cloudy 76 24.7 63 17 62 62 S 8 13 29.91 1013 10 16.09344 0 0
4:15 pm 16:15 Sunny 76 24.6 63 17 63 63 S 10 17 29.91 1013 10 16.09344 0 0
4:35 pm 16:35 Sunny 77 25 64 17.6 64 64 SSE 13 20 29.91 1013 10 16.09344 0 0
4:55 pm 16:55 Sunny 77 25.1 63 17.4 62 62 S 12 19 29.88 1012 10 16.09344 0 0
5:15 pm 17:15 Sunny 78 25.5 63 17.4 61 61 S 10 17 29.88 1012 10 16.09344 0 0
5:35 pm 17:35 Sunny 78 25.3 63 17.2 61 61 S 14 22 29.88 1012 10 16.09344 0 0
5:55 pm 17:55 Sunny 77 25 63 17.2 62 62 SSW 12 19 29.88 1012 10 16.09344 0 0
6:15 pm 18:15 Sunny 77 24.8 62 16.8 61 61 S 10 17 29.91 1013 10 16.09344 0 0
6:35 pm 18:35 Sunny 76 24.5 62 16.7 62 62 SSW 8 13 29.91 1013 10 16.09344 0 0
6:55 pm 18:55 Sunny 77 25.1 59 15.2 54 54 SE 7 11 29.94 1014 10 16.09344 0 0
7:15 pm 19:15 Sunny 74 23.3 63 17.2 69 69 S 7 11 29.94 1014 10 16.09344 0 0
7:35 pm 19:35 Sunny 72 22.3 63 17.4 74 74 SSE 7 11 29.94 1014 10 16.09344 0 0
7:55 pm 19:55 Sunny 70 21.3 63 17.1 77 77 SSE 6 9 29.94 1014 10 16.09344 0 0
8:15 pm 20:15 Clear 69 20.6 63 17.1 80 80 SSE 8 13 29.94 1014 10 16.09344 0 0
8:35 pm 20:35 Clear 69 20.5 63 17 80 80 SSE 8 13 29.94 1014 10 16.09344 0 0
8:55 pm 20:55 Clear 68 20 63 17 83 83 SSE 8 13 29.97 1015 10 16.09344 0 0
9:15 pm 21:15 Clear 67 19.7 63 17.1 85 85 SSE 8 13 29.97 1015 10 16.09344 0 0
9:35 pm 21:35 Clear 67 19.7 62 16.8 83 83 SSE 7 11 29.97 1015 10 16.09344 0 0
9:55 pm 21:55 Clear 67 19.2 62 16.6 85 85 SE 8 13 29.97 1015 10 16.09344 0 0
10:15 pm 22:15 Clear 67 19.3 62 16.6 84 84 SSE 8 13 29.97 1015 10 16.09344 0 0
10:35 pm 22:35 Clear 66 18.8 62 16.6 87 87 SSE 7 11 29.97 1015 10 16.09344 0 0
10:55 pm 22:55 Clear 65 18.5 62 16.6 89 89 SE 6 9 29.97 1015 10 16.09344 0 0
11:15 pm 23:15 Clear 66 18.7 62 16.6 88 88 SSE 5 7 29.97 1015 10 16.09344 0 0
11:35 pm 23:35 Clear 65 18.1 61 16.3 89 89 Calm 29.97 1015 10 16.09344 0 0
11:55 pm 23:55 Clear 64 17.6 61 16 90 90 SE 5 7 29.97 1015 10 16.09344 0 0

Powered by AerisWeather